STARLINK-1776 (46682 NORAD) Tracking and Keplerian Element Data
This shows tracking and keplerian element data for the satellite.
Feedback or suggestion? Click here.
Element | Value |
Catalog | 46682 |
Name | STARLINK-1776 |
Epoch Orbit | 1604 |
Epoch Day | 27.25001157 |
Epoch Year | 2021 |
RAAN | 359.8837 |
Inclination | 53.0545 |
Eccentricity | 0.0002322 |
Argument of Perigee | 58.9573 |
Mean Anonmoly | 318.2818 |
Mean Motion | 15.0639733 |
Decay Rate | 3.56E-05 |
L1 | 1 46682U 20073N 21027.25001157 .00003560 00000-0 25777-3 0 9996 |
L2 | 2 46682 53.0545 359.8837 0002322 58.9573 318.2818 15.06397330 16048 |
Live tracking and technical data element details for STARLINK-1776 (NORAD 46682). STARLINK-1776 can be tracked NOW for your location showing map with azimuth and elevation plus other details from your city location.
Track the satellite on the map from your city or location and see movement details for azimuth, elevation, latitude, longitude, range, height, and movement on the map or in text.
IsCatalogInMostPopularTable: catalog: 46682, numindb: 33
Update: records affected: 1
GetName: 46682 STARLINK-1776
Hit Count: updated at: Thu, 28 Jan 2021 12:43:33 GMT